Погода в Кумаси

Гана     6°42′42″N   1°38′17″W
темп.,
°C
ветер,
м/с
пор.,
м/с
влажн.,
%
обл.,
%
осадки,
мм/ч
давл.,
гПа
погр.,
м
3 августа, вт
вт300:00+23з1185100 0.0 101524
03:00+22ююз129088 0.0 101447
06:00+21зюз1194100 0.0 101529
09:00+25з227899 0.0 1016442
12:00+30зюз235452 0.0 10141565
15:00+29зюз2459100 0.1 1011285
18:00+25зюз238198 1.1 101251
21:00+23юз248859 0.5 101492
4 августа, ср
ср400:00+22юз269367 0.5 1014178
03:00+21ююз249851 0.0 1013184
06:00+21ююз249897 0.0 1014180
09:00+25юз3481100 0.1 1016734
12:00+29юз346296 0.2 10141375
15:00+28ююз357387 0.9 1012537
18:00+24ююз3890100 5.1 1013230
21:00+22ююз2895100 1.3 1016307
5 августа, чт
чт500:00+22ююз3997100 1.3 1016509
03:00+21юз2997100 0.1 1015567
06:00+21юз2897100 0.1 1017536
09:00+23юз3889100 0.1 1018756
12:00+23ююз149195 0.8 1017153
15:00+24юз3586100 3.1 1015446
18:00+22ююз2494100 5.7 1016126
21:00+22ююз1297100 0.8 101782
6 августа, пт
пт600:00+21ю2896100 0.8 1017348
03:00+21ююз2896100 0.0 1015345
06:00+21юз1497100 0.1 1017155
09:00+22ююз1594100 0.0 1018344
12:00+23ююз1389100 0.0 1018160
15:00+23зюз1285100 0.0 1016226
18:00+22сз1189100 0.0 101615
21:00+22в1191100 0.0 101814
7 августа, сб
сб700:00+21ююз129232 0.0 101752
03:00+20ююз1296100 0.0 101657
06:00+20юз229697 0.0 101765
09:00+25зюз2369100 0.0 1018653
12:00+28ююз4457100 0.0 10171390
15:00+28ююз2560100 0.0 1014754
18:00+26ююз3867100 0.0 1014366
21:00+23юз2579100 0.0 1017204